Weather History for Racine, WI

Change the Weather History Date:

Thursday, June 20, 2013

  Actual Average Record
Temperature  
Mean Temperature 66 °F -  
Max Temperature 78 °F 73 °F 97 °F (1953)
Min Temperature 55 °F 56 °F 43 °F (1948)
Cooling Degree Days 2    
Growing Degree Days 16 (Base 50)    
Moisture  
Dew Point 52 °F    
Average Humidity 57    
Maximum Humidity 83    
Minimum Humidity 43    
Precipitation  
Precipitation 0.00 in - - ()
Sea Level Pressure  
Sea Level Pressure 30.15 in    
Wind  
Wind Speed 4 mph (SSE)    
Max Wind Speed 14 mph    
Max Gust Speed -    
Visibility 10 miles    
Events      
Averages and records for this station are not official NWS values.
T = Trace of Precipitation, MM = Missing Value Source: NWS Daily Summary

Daily Weather History Graph

Daily Weather History Graph

Search for Another Location

Airport:

Trip Planner

Search our weather history database for the weather conditions in past years. The results will help you decide how hot, cold, wet, or windy it might be!

Date:

Astronomy

Jun. 20, 2013 Rise Set
Actual Time 5:12 AM CDT 8:32 PM CDT
Civil Twilight 4:37 AM CDT 9:08 PM CDT
Nautical Twilight 3:52 AM CDT 9:53 PM CDT
Astronomical Twilight 2:55 AM CDT 10:50 PM CDT
Moon 5:32 PM CDT (6/20) 2:42 AM CDT (6/20)
Length of Visible Light 16h 30m
Length of Day
15h 20m
Waxing Gibbous, 89% of the Moon is Illuminated
Jun 20
Waxing Gibbous
Jun 23
Full
Jun 29
Last Quarter
Jul 8
New
Jul 15
First Quarter

Hourly Weather History & Observations

Time (CDT) Temp. Dew Point Humidity Pressure Visibility Wind Dir Wind Speed Gust Speed Precip Events Conditions
12:53 AM 55.0 °F 44.1 °F 67% 30.14 in 10.0 mi Calm Calm - N/A   Clear
1:53 AM 55.9 °F 46.9 °F 72% 30.15 in 10.0 mi Calm Calm - N/A   Clear
2:53 AM 55.0 °F 48.0 °F 77% 30.15 in 10.0 mi Calm Calm - N/A   Clear
3:53 AM 55.9 °F 48.9 °F 77% 30.15 in 10.0 mi SSW 3.5 mph - N/A   Clear
4:53 AM 55.0 °F 50.0 °F 83% 30.16 in 10.0 mi Calm Calm - N/A   Clear
5:53 AM 57.0 °F 50.0 °F 77% 30.17 in 10.0 mi South 3.5 mph - N/A   Clear
6:53 AM 62.1 °F 50.0 °F 65% 30.17 in 10.0 mi South 4.6 mph - N/A   Clear
7:53 AM 68.0 °F 50.0 °F 52% 30.17 in 10.0 mi South 4.6 mph - N/A   Clear
8:53 AM 72.0 °F 51.1 °F 48% 30.17 in 10.0 mi South 8.1 mph - N/A   Clear
9:53 AM 73.0 °F 51.1 °F 46% 30.18 in 10.0 mi SSE 8.1 mph - N/A   Scattered Clouds
10:53 AM 72.0 °F 54.0 °F 53% 30.19 in 10.0 mi SSE 6.9 mph - N/A   Clear
11:53 AM 72.0 °F 55.0 °F 55% 30.18 in 10.0 mi SE 8.1 mph - N/A   Clear
12:53 PM 73.9 °F 55.9 °F 53% 30.18 in 10.0 mi SE 6.9 mph - N/A   Clear
1:53 PM 75.9 °F 55.9 °F 50% 30.16 in 10.0 mi SE 12.7 mph - N/A   Clear
2:53 PM 78.1 °F 57.9 °F 50% 30.15 in 10.0 mi SE 10.4 mph - N/A   Clear
3:53 PM 77.0 °F 55.9 °F 48% 30.14 in 10.0 mi SSE 13.8 mph - N/A   Clear
4:53 PM 77.0 °F 53.1 °F 43% 30.14 in 10.0 mi SE 10.4 mph - N/A   Clear
5:53 PM 75.9 °F 53.1 °F 45% 30.12 in 10.0 mi SE 10.4 mph - N/A   Clear
6:53 PM 75.0 °F 53.1 °F 46% 30.10 in 10.0 mi SSE 10.4 mph - N/A   Clear
7:53 PM 72.0 °F 53.1 °F 51% 30.11 in 10.0 mi SE 6.9 mph - N/A   Clear
8:53 PM 70.0 °F 53.1 °F 55% 30.11 in 10.0 mi SE 5.8 mph - N/A   Clear
9:53 PM 68.0 °F 53.1 °F 59% 30.12 in 10.0 mi SE 5.8 mph - N/A   Clear
10:53 PM 70.0 °F 53.1 °F 55% 30.13 in 10.0 mi SSE 5.8 mph - N/A   Clear
11:53 PM 71.1 °F 53.1 °F 53% 30.13 in 10.0 mi SSE 9.2 mph - N/A   Clear